Location: Newark
(45.2500°N, 7.5833°E)
Time: 14:40:24
(UTC+00:00)

Vanguard 3 - Pass Details

Date: 29 January 2020
Orbit: 508 x 3263 km, 33.3° (Epoch: 28 February)

Event Time Altitude Azimuth Distance (km) Brightness Sun altitude
Rises 19:43:40 0° 270° (W) 7,215 13.0 -33.8°
Reaches altitude 10° 19:48:49 10° 266° (W) 6,199 12.4 -34.6°
Maximum altitude 20:06:40 47° 201° (SSW) 3,387 10.1 -37.7°
Enters shadow 20:11:02 40° 167° (SSE) 3,367 9.9 -38.5°
Drops below altitude 10° 20:19:17 10° 133° (SE) 4,474 - -39.9°
Sets 20:22:21 0° 128° (SE) 5,144 - -40.4°
